Miscellaneous Local Product
Issued by NWS North Platte, NE

Home | Current Version | Previous Version | Text Only | Print | Product List | Glossary On
Versions: 1 2 3 4 5 6 7 8 9 10 11 12 13 14 15 16 17 18 19 20 21 22 23 24 25 26 27 28 29 30 31 32 33 34 35 36 37 38 39 40 41 42 43 44 45 46 47 48 49 50
000
AXUS43 KLBF 171110
MISLBF


WESTERN AND NORTH CENTRAL NEBRASKA HOURLY WEATHER ROUNDUP
NATIONAL WEATHER SERVICE NORTH PLATTE NE
600 AM CDT FRI APR 17 2015

***STATIONS NOT REPORTING VARIABLES SUCH AS SKY/WEATHER OR
PRESSURE ARE PROVIDED BY THE NEBRASKA DEPARTMENT OF
ROADS...RAWS...AND APRS NETWORKS...AND ARE NOT UNDER
NATIONAL WEATHER SERVICE QUALITY CONTROL***

...OBSERVATIONS IN AND NEAR THE EASTERN PANHANDLE OF NEBRASKA...

CITY           SKY/WX    TMP DP  RH WIND       PRES   REMARKS
PINE RIDGE     CLOUDY    45  37  73 E6        30.17S
CHADRON        LGT RAIN  46  37  71 CALM      30.18S
ALLIANCE       CLOUDY    45  41  86 NE14      30.11F
SIDNEY         LGT RAIN  45  44  97 NE21      30.06F
$$

...OBSERVATIONS IN NORTH CENTRAL NEBRASKA...

CITY           SKY/WX    TMP DP  RH WIND       PRES   REMARKS
VALENTINE      CLOUDY    51  37  58 NE10      30.16R
THEDFORD       CLOUDY    49  47  93 NE8       30.12F
AINSWORTH      CLOUDY    49  44  83 N3        30.15S
O`NEILL        CLOUDY    52  49  91 CALM      30.13S
ORD            LGT RAIN  53  49  86 NE5       30.11S FOG
BROKEN BOW     LGT RAIN  54  51  90 NE8       30.10F
$$

...OBSERVATIONS IN SOUTHWEST NEBRASKA AND FAR NORTHEAST COLORADO...

CITY           SKY/WX    TMP DP  RH WIND       PRES   REMARKS
WRAY           LGT RAIN N/A N/A N/A NE8       30.02F
HOLYOKE        LGT RAIN  52  48  87 E12       30.04S
IMPERIAL       LGT RAIN  51  49  92 E15       30.04S FOG
OGALLALA       LGT RAIN  50  49  97 NE12      30.06F
NORTH PLATTE   LGT RAIN  51  50  96 NE9       30.08F
MCCOOK         CLOUDY    53  52  96 NE13      30.04F FOG
LEXINGTON      CLOUDY    54  53  96 NE8       30.07F FOG
$$

...NORTH PLATTE AREA...

CITY           SKY/WX    TMP DP  RH WIND       PRES   REMARKS
AIRPORT        LGT RAIN  51  50  96 NE9       30.08F
$$

...SOME WEATHER OBSERVATIONS FROM AROUND THE REGION...

CITY           SKY/WX    TMP DP  RH WIND       PRES   REMARKS
DENVER         LGT RAIN  34  33  96 SW10      30.03F VSB 1/4 WCI  26
LARAMIE        MIX PCPN  32  29  88 NE21G29   30.07F WCI  20
CHEYENNE       LGT SNOW  34  33  96 N20G25    30.08F FOG     WCI  23
SCOTTSBLUFF    CLOUDY    45  44  97 NE24G31   30.10F
RAPID CITY     PTCLDY    35  28  75 NW8       30.21R WCI  29
PIERRE         CLEAR     40  32  73 N5        30.17S
WINNER         FAIR      45  35  68 NW3       30.15S
SIOUX FALLS    MOCLDY    47  38  71 NE5       30.13R
OMAHA          CLOUDY    55  51  86 N8        30.09S
GRAND ISLAND   LGT RAIN  54  51  90 NE13      30.08F FOG
KANSAS CITY    MOCLDY    58  53  84 E5        30.05R
WICHITA        LGT RAIN  61  57  87 N10       29.98F
HAYS           CLOUDY    55  46  71 S17       30.01F
LIBERAL        CLOUDY    54  48  82 SE15G21   29.99S
GOODLAND       CLOUDY    51  50  96 E16       30.01S
$$



USA.gov is the U.S. government's official web portal to all federal, state and local government web resources and services.